ATLAS AGENA B DEB, 631

Orbit data source: Space-Track

ATLAS AGENA B DEB, 631 is space debris in LEO originally from a launch on Fri, 19 Jul 1963 UTC launched from the Air Force Western Test Range (AFWTR). Debris objects in space refer to the collection of defunct objects orbiting the Earth. Examples of debris include non-operational satellites, rocket bodies, and fragments generated from explosions, collisions, or faulty payload assembly.

Loading next visibility...
Identifier
631, 1963-030E
Orbit
LEO
Country
Flag of USUS
Related business
Manufacturer
Unknown
Mission
Spacecraft
Bus & Motor
Unknown
Mass
~10 kg wet, ~10 kg dry
Launch date (UTC)
1963-07-19 (63 years ago)
Launch vehicle
Unknown
Launch site
Air Force Western Test Range (AFWTR)
Object type
Payload
Rocket body
Debris
Shape & HBR
PAN, 0.8 m
Radar Cross Section
Medium (>0.1 m² and <1 m²)

Expand to show TLE details & history
Last TLE update: 3 days ago

TLE from 3 days ago
0 ATLAS AGENA B DEB
1 00631U 63030E   26235.34494490  .00000003  00000-0  00000-0 0  9990
2 00631  88.4389 213.6436 0156401  21.8678 338.8756  8.55875725971386
Epoch: 2026-08-23T08:16Z
TLE epoch observation values (Epoch: 2026-08-23T08:16:43.239Z)
Latitude
0.00001°
Longitude
117.8211°
Altitude
3,572.572 km
Speed
6.376 km/s
True Right ascension
14h 14m 34s
True Declination
0° 00' 00"
Sunlit
Object was in daylight at epoch
Visualization orbit readout
Latitude
Unknown
Longitude
Unknown
Altitude
Unknown
Speed
Unknown
Apparent Right ascension
Unknown
Apparent Declination
Unknown
Sunlit
N/A
Visualization observer readout
Local Sidereal Time
12:45:39
Azimuth
Unknown
Elevation
Unknown
Doppler factor
Unknown
Orbital elements
Apogee altitude
3,873.058 km
Perigee altitude
3,557.336 km
Semi-major axis
10,093.334 km
Eccentricity
0.01564
Inclination
88.4389°
RAAN
213.6436°
Arg. of periapsis
21.8678°
True anomaly
338.21772°
Mean anomaly
338.8756°
Eccentric anomaly
338.54787°
Mean motion
2.14038 °/min
Orbital period
168.19 mins
BSTAR
0
Loading maneuver chart data...
Computing Atmospheric mass density...
Loading historical data...
Loading historical data...
Loading historical data...
Loading historical data...
Loading historical data...
Loading historical data...
Loading historical data...

Documentation

Showing up to 5 results
|